sat.trackr.live / text

‹ back to catalog

SAUDICOMSAT 7

NORAD 31119 · 2007-012C

PAYLOAD ACTIVE UNKNOWN

§ Identity

Operator
Country
SAUD
Launch date
2007-04-17
Launch site
TYMSC
Launch vehicle
Mass (kg)
RCS (m²)
0.07

External: N2YO · Heavens-Above · Gunter

§ Orbital elements

Epoch: 2026-09-19T08:39:00.897120Z

Period
98.21 min
Inclination
98.3901°
Eccentricity
0.0054283
Mean motion
14.66203852 rev/d
Perigee alt
634.9 km
Apogee alt
711.5 km
Semi-major
7,051.3 km
B*
7.1847e-5
RAAN
238.4796°
Arg perigee
261.3123°
Mean anomaly
98.1928°
Rev number
3,623

§ Raw data

SAUDICOMSAT 71 31119U 07012C   26262.36042705  .00000349  00000+0  71847-4 0  99962 31119  98.3901 238.4796 0054283 261.3123  98.1928 14.66203852 36234

JSON: /api/v1/satellites/31119 · /tle

For live sub-satellite position, see the globe view (requires WebGL).

§ Visibility from observer

Set your observer location to see the next 7 days of passes ≥ 10°. The values pass through the URL so the page stays shareable.

No JS? Fill the form by hand. The geolocation button needs JavaScript.